Location: Izdebno
(52.6670°N, 16.2170°E)
Time: 09:47:58
(UTC+02:00)

A-11 Canister half - Pass Details

Date: 29 February 2024
Orbit: 1513 x 1686 km, 47.2° (Epoch: 24 April)

Event Time Altitude Azimuth Distance (km) Brightness Sun altitude
Exits shadow 02:12:29 51° 128° (SE) 2,017 9.4 -38.5°
Drops below altitude 10° 02:20:19 10° 88° (E) 3,878 11.5 -37.7°
Sets 02:23:28 0° 84° (E) 4,844 12.2 -37.4°
